ETX1801 KORF-KPBI

Flight info

Callsign ETX1801
Flight time 1h 40m
Altitude 43000
Route SWOPE1 PRONI WAALT Y289 DULEE CLMNT2
Aircraft C750/M-SBDE3FGHRWXY/S

Departure

Time 2026-04-26 21:28
Airport Norfolk International Airport (KORF)

Arrival

Time 2026-04-26 23:09
Airport Palm Beach International Airport (KPBI)
Time Latitude Longitude Altitude Speed Heading
2026-04-26 21:07 36.89178 -76.20762 31 ft 0 kts 217°
2026-04-26 21:23 36.89177 -76.20763 31 ft 2 kts 216°
2026-04-26 21:23 36.89169 -76.20762 31 ft 1 kts 153°
2026-04-26 21:23 36.89169 -76.20753 31 ft 3 kts 90°
2026-04-26 21:24 36.89164 -76.20683 31 ft 10 kts 104°
2026-04-26 21:24 36.89145 -76.20592 30 ft 15 kts 103°
2026-04-26 21:24 36.89153 -76.20494 31 ft 6 kts 62°
2026-04-26 21:24 36.89149 -76.20485 31 ft 1 kts 166°
2026-04-26 21:25 36.89105 -76.20527 31 ft 12 kts 211°
2026-04-26 21:25 36.89029 -76.20575 33 ft 16 kts 212°
2026-04-26 21:25 36.88974 -76.20583 34 ft 0 kts 142°
2026-04-26 21:26 36.88969 -76.20577 34 ft 3 kts 140°
2026-04-26 21:26 36.88943 -76.20551 34 ft 9 kts 138°
2026-04-26 21:26 36.88944 -76.20487 33 ft 0 kts 43°
2026-04-26 21:27 36.89000 -76.20428 32 ft 50 kts 38°
2026-04-26 21:28 36.89559 -76.19888 37 ft 137 kts 38°
2026-04-26 21:28 36.90320 -76.19056 599 ft 151 kts 40°
2026-04-26 21:28 36.91115 -76.18091 1297 ft 170 kts 44°
2026-04-26 21:28 36.91970 -76.17013 2200 ft 178 kts 43°
2026-04-26 21:29 36.92531 -76.15598 3039 ft 198 kts 83°
2026-04-26 21:29 36.91990 -76.13941 3923 ft 224 kts 129°
2026-04-26 21:29 36.90536 -76.13154 4868 ft 242 kts 175°
2026-04-26 21:29 36.88892 -76.13511 5951 ft 236 kts 198°
2026-04-26 21:30 36.87325 -76.14038 7035 ft 231 kts 205°
2026-04-26 21:30 36.86056 -76.15217 7985 ft 228 kts 230°
2026-04-26 21:30 36.84935 -76.16638 9054 ft 232 kts 225°
2026-04-26 21:30 36.84089 -76.17509 9774 ft 234 kts 220°
2026-04-26 21:31 36.82341 -76.19113 11039 ft 233 kts 219°
2026-04-26 21:31 36.81054 -76.20337 11959 ft 232 kts 220°
2026-04-26 21:31 36.79774 -76.21579 12798 ft 237 kts 219°
2026-04-26 21:31 36.78394 -76.22911 13137 ft 265 kts 219°
2026-04-26 21:32 36.76855 -76.24387 13428 ft 293 kts 219°
2026-04-26 21:32 36.75146 -76.25966 13666 ft 320 kts 214°
2026-04-26 21:32 36.72970 -76.26975 13675 ft 351 kts 192°
2026-04-26 21:32 36.70470 -76.27479 13757 ft 377 kts 187°
2026-04-26 21:33 36.67818 -76.27933 14187 ft 388 kts 188°
2026-04-26 21:33 36.65166 -76.28543 14895 ft 390 kts 191°
2026-04-26 21:33 36.63398 -76.28994 15310 ft 393 kts 191°
2026-04-26 21:33 36.59776 -76.29823 16181 ft 398 kts 188°
2026-04-26 21:34 36.57963 -76.30199 16618 ft 401 kts 188°
2026-04-26 21:34 36.55196 -76.30796 17272 ft 405 kts 189°
2026-04-26 21:34 36.52418 -76.31481 17924 ft 410 kts 193°
2026-04-26 21:34 36.49768 -76.32861 18528 ft 415 kts 207°
2026-04-26 21:35 36.46363 -76.35050 19482 ft 417 kts 207°
2026-04-26 21:35 36.44608 -76.36149 19983 ft 418 kts 207°
2026-04-26 21:35 36.41997 -76.37771 20699 ft 421 kts 207°
2026-04-26 21:35 36.39388 -76.39411 21494 ft 422 kts 209°
2026-04-26 21:36 36.36763 -76.41075 22208 ft 424 kts 208°
2026-04-26 21:36 36.34140 -76.42726 23007 ft 424 kts 209°
2026-04-26 21:36 36.31495 -76.44379 23734 ft 426 kts 209°
2026-04-26 21:36 36.28853 -76.46034 24378 ft 426 kts 209°
2026-04-26 21:37 36.26207 -76.47696 25021 ft 426 kts 209°
2026-04-26 21:37 36.23596 -76.49334 25670 ft 427 kts 209°
2026-04-26 21:37 36.20942 -76.50994 26270 ft 428 kts 209°
2026-04-26 21:37 36.18260 -76.52671 26712 ft 434 kts 209°
2026-04-26 21:38 36.15558 -76.54360 27291 ft 436 kts 209°
2026-04-26 21:38 36.12846 -76.56054 27881 ft 438 kts 209°
2026-04-26 21:38 36.10119 -76.57756 28442 ft 441 kts 208°
2026-04-26 21:38 36.07374 -76.59467 29020 ft 443 kts 208°
2026-04-26 21:39 36.04611 -76.61188 29572 ft 446 kts 208°
2026-04-26 21:39 36.01832 -76.62919 30116 ft 448 kts 208°
2026-04-26 21:39 35.99036 -76.64657 30584 ft 451 kts 209°
2026-04-26 21:39 35.96237 -76.66396 31118 ft 451 kts 209°
2026-04-26 21:40 35.93448 -76.68128 31791 ft 447 kts 209°
2026-04-26 21:40 35.90685 -76.69855 32457 ft 444 kts 210°
2026-04-26 21:40 35.88036 -76.71792 33059 ft 441 kts 213°
2026-04-26 21:40 35.85421 -76.73743 33721 ft 439 kts 213°
2026-04-26 21:41 35.82802 -76.75662 34361 ft 436 kts 213°
2026-04-26 21:41 35.80195 -76.77571 34866 ft 436 kts 213°
2026-04-26 21:41 35.77590 -76.79499 35359 ft 437 kts 213°
2026-04-26 21:41 35.74985 -76.81426 35854 ft 437 kts 214°
2026-04-26 21:42 35.72376 -76.83343 36375 ft 437 kts 214°
2026-04-26 21:42 35.69768 -76.85257 36893 ft 437 kts 214°
2026-04-26 21:42 35.67160 -76.87175 37424 ft 437 kts 214°
2026-04-26 21:42 35.64578 -76.89074 37847 ft 440 kts 214°
2026-04-26 21:43 35.61951 -76.91001 38371 ft 440 kts 214°
2026-04-26 21:43 35.59318 -76.92930 38916 ft 440 kts 214°
2026-04-26 21:43 35.56692 -76.94853 39368 ft 440 kts 214°
2026-04-26 21:43 35.54067 -76.96777 39817 ft 440 kts 214°
2026-04-26 21:44 35.51438 -76.98699 40289 ft 439 kts 214°
2026-04-26 21:44 35.48818 -77.00613 40787 ft 438 kts 215°
2026-04-26 21:44 35.46202 -77.02525 41238 ft 438 kts 215°
2026-04-26 21:44 35.43584 -77.04437 41684 ft 438 kts 215°
2026-04-26 21:45 35.40970 -77.06342 42136 ft 438 kts 215°
2026-04-26 21:45 35.38350 -77.08251 42570 ft 438 kts 215°
2026-04-26 21:45 35.35738 -77.10154 42997 ft 437 kts 215°
2026-04-26 21:45 35.33099 -77.12076 43071 ft 446 kts 215°
2026-04-26 21:46 35.27662 -77.16030 43086 ft 464 kts 215°
2026-04-26 21:46 35.22009 -77.20129 43080 ft 481 kts 214°
2026-04-26 21:47 35.16173 -77.24356 43072 ft 492 kts 214°
2026-04-26 21:47 35.10286 -77.28610 43081 ft 490 kts 214°
2026-04-26 21:48 35.04418 -77.32848 43058 ft 489 kts 214°
2026-04-26 21:48 34.98591 -77.37048 43049 ft 490 kts 214°
2026-04-26 21:49 34.92717 -77.41273 43051 ft 490 kts 214°
2026-04-26 21:49 34.86839 -77.45496 43054 ft 490 kts 214°
2026-04-26 21:50 34.80969 -77.49704 43068 ft 489 kts 214°
2026-04-26 21:50 34.75097 -77.53910 43055 ft 490 kts 214°
2026-04-26 21:51 34.69220 -77.58109 43051 ft 490 kts 214°
2026-04-26 21:51 34.63332 -77.62312 43049 ft 493 kts 214°
2026-04-26 21:52 34.57407 -77.66483 43023 ft 492 kts 212°
2026-04-26 21:52 34.54176 -77.67931 43023 ft 500 kts 199°
2026-04-26 21:52 34.50770 -77.68846 43044 ft 502 kts 196°
2026-04-26 21:53 34.43892 -77.70541 43029 ft 504 kts 196°
2026-04-26 21:53 34.37040 -77.72320 42998 ft 503 kts 197°
2026-04-26 21:54 34.30198 -77.74039 43015 ft 502 kts 196°
2026-04-26 21:54 34.23360 -77.75784 43011 ft 502 kts 197°
2026-04-26 21:55 34.16523 -77.77511 43013 ft 502 kts 197°
2026-04-26 21:55 34.09674 -77.79245 43007 ft 502 kts 197°
2026-04-26 21:56 34.02876 -77.80960 42998 ft 502 kts 197°
2026-04-26 21:56 33.96043 -77.82682 43008 ft 502 kts 197°
2026-04-26 21:57 33.89153 -77.84416 43012 ft 503 kts 197°
2026-04-26 21:57 33.82345 -77.86125 43006 ft 502 kts 197°
2026-04-26 21:58 33.75564 -77.88154 43005 ft 503 kts 201°
2026-04-26 21:58 33.68830 -77.90449 42999 ft 502 kts 200°
2026-04-26 21:59 33.62113 -77.92721 42964 ft 502 kts 200°
2026-04-26 21:59 33.55402 -77.95001 42985 ft 502 kts 200°
2026-04-26 22:00 33.48670 -77.97274 42979 ft 505 kts 201°
2026-04-26 22:00 33.41908 -77.99558 42978 ft 504 kts 201°
2026-04-26 22:01 33.35158 -78.01833 42978 ft 503 kts 201°
2026-04-26 22:01 33.28414 -78.04104 42962 ft 503 kts 201°
2026-04-26 22:02 33.22812 -78.05986 42966 ft 503 kts 201°
2026-04-26 22:02 33.14931 -78.08631 42956 ft 503 kts 201°
2026-04-26 22:03 33.08197 -78.10886 42968 ft 502 kts 200°
2026-04-26 22:03 33.01467 -78.13137 42976 ft 502 kts 200°
2026-04-26 22:04 32.94736 -78.15384 42975 ft 502 kts 200°
2026-04-26 22:04 32.88054 -78.17612 42972 ft 502 kts 200°
2026-04-26 22:05 32.81325 -78.19852 42972 ft 502 kts 200°
2026-04-26 22:05 32.74593 -78.22089 42967 ft 502 kts 200°
2026-04-26 22:06 32.67864 -78.24322 42961 ft 502 kts 200°
2026-04-26 22:06 32.61135 -78.26551 42966 ft 502 kts 200°
2026-04-26 22:07 32.54400 -78.28778 42945 ft 502 kts 201°
2026-04-26 22:07 32.47664 -78.31004 42944 ft 503 kts 201°
2026-04-26 22:08 32.40928 -78.33224 42948 ft 503 kts 201°
2026-04-26 22:08 32.34185 -78.35445 42938 ft 504 kts 201°
2026-04-26 22:09 32.27426 -78.37666 42949 ft 505 kts 201°
2026-04-26 22:09 32.20650 -78.39890 42948 ft 505 kts 201°
2026-04-26 22:10 32.13879 -78.42109 42935 ft 504 kts 201°
2026-04-26 22:10 32.07162 -78.44307 42935 ft 504 kts 201°
2026-04-26 22:11 32.00367 -78.46528 42946 ft 507 kts 201°
2026-04-26 22:11 31.93582 -78.48738 42949 ft 506 kts 201°
2026-04-26 22:12 31.86791 -78.50952 42948 ft 506 kts 201°
2026-04-26 22:12 31.80007 -78.53157 42935 ft 506 kts 201°
2026-04-26 22:13 31.73216 -78.55363 42939 ft 507 kts 201°
2026-04-26 22:13 31.66404 -78.57571 42941 ft 507 kts 201°
2026-04-26 22:14 31.59605 -78.59772 42939 ft 507 kts 201°
2026-04-26 22:14 31.52811 -78.61972 42934 ft 507 kts 202°
2026-04-26 22:15 31.46045 -78.64338 42930 ft 507 kts 203°
2026-04-26 22:15 31.39267 -78.66637 42931 ft 507 kts 202°
2026-04-26 22:16 31.32498 -78.68958 42930 ft 507 kts 203°
2026-04-26 22:16 31.25713 -78.71275 42939 ft 510 kts 202°
2026-04-26 22:17 31.18895 -78.73594 42950 ft 509 kts 202°
2026-04-26 22:17 31.12096 -78.75912 42939 ft 509 kts 202°
2026-04-26 22:18 31.05307 -78.78216 42938 ft 509 kts 202°
2026-04-26 22:18 30.98507 -78.80526 42939 ft 509 kts 202°
2026-04-26 22:19 30.91700 -78.82830 42952 ft 510 kts 202°
2026-04-26 22:19 30.84885 -78.85136 42945 ft 509 kts 202°
2026-04-26 22:20 30.79234 -78.87045 42949 ft 509 kts 202°
2026-04-26 22:20 30.71291 -78.89724 42942 ft 507 kts 202°
2026-04-26 22:21 30.65660 -78.91622 42943 ft 507 kts 202°
2026-04-26 22:21 30.57716 -78.94293 42937 ft 508 kts 202°
2026-04-26 22:22 30.52079 -78.96186 42945 ft 508 kts 202°
2026-04-26 22:22 30.45281 -78.98466 42942 ft 508 kts 202°
2026-04-26 22:23 30.38411 -79.00481 42937 ft 511 kts 199°
2026-04-26 22:23 30.31478 -79.02305 42937 ft 511 kts 199°
2026-04-26 22:24 30.24542 -79.04122 42938 ft 511 kts 199°
2026-04-26 22:24 30.17616 -79.05932 42933 ft 511 kts 199°
2026-04-26 22:25 30.10676 -79.07747 42955 ft 512 kts 199°
2026-04-26 22:25 30.03725 -79.09556 42944 ft 511 kts 199°
2026-04-26 22:26 29.96793 -79.11363 42944 ft 511 kts 199°
2026-04-26 22:26 29.89892 -79.13157 42938 ft 512 kts 199°
2026-04-26 22:27 29.82941 -79.14961 42940 ft 512 kts 199°
2026-04-26 22:27 29.75986 -79.16740 42937 ft 512 kts 199°
2026-04-26 22:28 29.69029 -79.18511 42934 ft 512 kts 199°
2026-04-26 22:28 29.62068 -79.20288 42944 ft 513 kts 199°
2026-04-26 22:29 29.55095 -79.22059 42957 ft 513 kts 199°
2026-04-26 22:29 29.48131 -79.23830 42960 ft 513 kts 199°
2026-04-26 22:30 29.41160 -79.25598 42953 ft 513 kts 199°
2026-04-26 22:30 29.34189 -79.27364 42940 ft 513 kts 199°
2026-04-26 22:31 29.27213 -79.29128 42943 ft 513 kts 199°
2026-04-26 22:31 29.20239 -79.30890 42948 ft 513 kts 199°
2026-04-26 22:32 29.13258 -79.32651 42956 ft 514 kts 199°
2026-04-26 22:32 29.06273 -79.34410 42947 ft 515 kts 199°
2026-04-26 22:33 28.95741 -79.37057 42943 ft 516 kts 199°
2026-04-26 22:34 28.88754 -79.38812 42411 ft 510 kts 199°
2026-04-26 22:34 28.85319 -79.39670 41758 ft 501 kts 198°
2026-04-26 22:34 28.81958 -79.40510 41089 ft 488 kts 198°
2026-04-26 22:34 28.78683 -79.41331 40480 ft 476 kts 198°
2026-04-26 22:35 28.75475 -79.42137 39860 ft 468 kts 198°
2026-04-26 22:35 28.72310 -79.42931 39244 ft 464 kts 198°
2026-04-26 22:35 28.69164 -79.43718 38648 ft 463 kts 198°
2026-04-26 22:35 28.66007 -79.44508 37985 ft 465 kts 198°
2026-04-26 22:36 28.62825 -79.45304 37369 ft 471 kts 198°
2026-04-26 22:36 28.59607 -79.46107 36747 ft 476 kts 198°
2026-04-26 22:36 28.56362 -79.46915 36117 ft 479 kts 198°
2026-04-26 22:36 28.53102 -79.47725 35479 ft 479 kts 198°
2026-04-26 22:37 28.49848 -79.48535 34849 ft 479 kts 198°
2026-04-26 22:37 28.46597 -79.49346 34218 ft 479 kts 198°
2026-04-26 22:37 28.43334 -79.50158 33545 ft 480 kts 198°
2026-04-26 22:37 28.40079 -79.50966 32915 ft 480 kts 197°
2026-04-26 22:38 28.36807 -79.51779 32276 ft 481 kts 197°
2026-04-26 22:38 28.33535 -79.52593 31641 ft 483 kts 197°
2026-04-26 22:38 28.30249 -79.53416 31001 ft 483 kts 197°
2026-04-26 22:38 28.27001 -79.54354 30367 ft 484 kts 198°
2026-04-26 22:39 28.23721 -79.55211 29686 ft 480 kts 196°
2026-04-26 22:39 28.20489 -79.56034 29052 ft 471 kts 197°
2026-04-26 22:39 28.17329 -79.56909 28434 ft 465 kts 198°
2026-04-26 22:39 28.14204 -79.57799 27823 ft 460 kts 197°
2026-04-26 22:40 28.11104 -79.58639 27218 ft 456 kts 197°
2026-04-26 22:40 28.08073 -79.59439 26628 ft 451 kts 197°
2026-04-26 22:40 28.05034 -79.60262 26033 ft 446 kts 197°
2026-04-26 22:40 28.02033 -79.61091 25450 ft 442 kts 197°
2026-04-26 22:41 27.99056 -79.61903 24870 ft 438 kts 196°
2026-04-26 22:41 27.96107 -79.62695 24290 ft 434 kts 196°
2026-04-26 22:41 27.93185 -79.63485 23726 ft 431 kts 196°
2026-04-26 22:41 27.90286 -79.64274 23114 ft 426 kts 196°
2026-04-26 22:42 27.87422 -79.65051 22553 ft 422 kts 196°
2026-04-26 22:42 27.84572 -79.65820 21997 ft 420 kts 196°
2026-04-26 22:42 27.81734 -79.66588 21444 ft 418 kts 196°
2026-04-26 22:42 27.78907 -79.67352 20891 ft 415 kts 196°
2026-04-26 22:43 27.76109 -79.68108 20349 ft 413 kts 196°
2026-04-26 22:43 27.73328 -79.68859 19806 ft 410 kts 196°
2026-04-26 22:43 27.70559 -79.69607 19266 ft 408 kts 196°
2026-04-26 22:43 27.67806 -79.70349 18725 ft 405 kts 195°
2026-04-26 22:44 27.65086 -79.71083 18193 ft 399 kts 195°
2026-04-26 22:44 27.62398 -79.71807 17619 ft 395 kts 195°
2026-04-26 22:44 27.59733 -79.72524 17113 ft 392 kts 195°
2026-04-26 22:44 27.57092 -79.73236 16598 ft 389 kts 196°
2026-04-26 22:45 27.54469 -79.73941 16136 ft 387 kts 196°
2026-04-26 22:45 27.51859 -79.74643 15631 ft 384 kts 196°
2026-04-26 22:45 27.49268 -79.75340 15124 ft 381 kts 196°
2026-04-26 22:45 27.46696 -79.76031 14623 ft 378 kts 196°
2026-04-26 22:46 27.44149 -79.76714 14124 ft 376 kts 196°
2026-04-26 22:46 27.41615 -79.77395 13615 ft 373 kts 196°
2026-04-26 22:46 27.39105 -79.78068 13105 ft 368 kts 196°
2026-04-26 22:46 27.36620 -79.78735 12620 ft 366 kts 196°
2026-04-26 22:47 27.34154 -79.79396 12141 ft 360 kts 196°
2026-04-26 22:47 27.31782 -79.80028 11677 ft 340 kts 196°
2026-04-26 22:47 27.29551 -79.80623 11239 ft 319 kts 196°
2026-04-26 22:47 27.27453 -79.81186 10827 ft 302 kts 197°
2026-04-26 22:48 27.25450 -79.81725 10440 ft 292 kts 197°
2026-04-26 22:48 27.23486 -79.82252 10061 ft 289 kts 197°
2026-04-26 22:48 27.21539 -79.82778 9665 ft 287 kts 198°
2026-04-26 22:48 27.19726 -79.83626 9261 ft 281 kts 211°
2026-04-26 22:49 27.18015 -79.84681 8911 ft 281 kts 212°
2026-04-26 22:49 27.16295 -79.85725 8540 ft 281 kts 211°
2026-04-26 22:49 27.14563 -79.86746 8164 ft 281 kts 211°
2026-04-26 22:49 27.12840 -79.87765 7790 ft 279 kts 211°
2026-04-26 22:50 27.11129 -79.88786 7417 ft 278 kts 211°
2026-04-26 22:50 27.09429 -79.89799 7049 ft 276 kts 211°
2026-04-26 22:50 27.07736 -79.90807 6684 ft 275 kts 211°
2026-04-26 22:50 27.06046 -79.91812 6318 ft 274 kts 211°
2026-04-26 22:51 27.04373 -79.92806 5945 ft 271 kts 211°
2026-04-26 22:51 27.02714 -79.93792 5594 ft 268 kts 211°
2026-04-26 22:51 27.01070 -79.94769 5241 ft 266 kts 211°
2026-04-26 22:51 26.99441 -79.95737 4887 ft 265 kts 211°
2026-04-26 22:52 26.97813 -79.96704 4534 ft 263 kts 211°
2026-04-26 22:52 26.96202 -79.97660 4181 ft 261 kts 210°
2026-04-26 22:52 26.94669 -79.98706 3982 ft 252 kts 219°
2026-04-26 22:52 26.93323 -79.99890 3999 ft 250 kts 219°
2026-04-26 22:53 26.91928 -80.01089 4002 ft 254 kts 219°
2026-04-26 22:53 26.90511 -80.02300 3993 ft 259 kts 219°
2026-04-26 22:53 26.89076 -80.03534 4001 ft 261 kts 219°
2026-04-26 22:53 26.87641 -80.04770 3986 ft 260 kts 219°
2026-04-26 22:54 26.86215 -80.05996 3991 ft 257 kts 219°
2026-04-26 22:54 26.84795 -80.07217 3991 ft 259 kts 219°
2026-04-26 22:54 26.83391 -80.08428 3983 ft 246 kts 220°
2026-04-26 22:54 26.82099 -80.09557 3963 ft 225 kts 220°
2026-04-26 22:55 26.81039 -80.10723 3943 ft 206 kts 239°
2026-04-26 22:55 26.80572 -80.12109 3945 ft 176 kts 261°
2026-04-26 22:55 26.80482 -80.13385 3963 ft 157 kts 266°
2026-04-26 22:55 26.80386 -80.14592 3975 ft 156 kts 266°
2026-04-26 22:56 26.80293 -80.15824 3978 ft 162 kts 266°
2026-04-26 22:56 26.80197 -80.17131 3977 ft 173 kts 266°
2026-04-26 22:56 26.80100 -80.18470 3977 ft 172 kts 266°
2026-04-26 22:56 26.80003 -80.19809 3978 ft 173 kts 266°
2026-04-26 22:57 26.79906 -80.21151 3936 ft 174 kts 266°
2026-04-26 22:57 26.79809 -80.22555 3557 ft 186 kts 266°
2026-04-26 22:57 26.79712 -80.23996 3168 ft 183 kts 266°
2026-04-26 22:57 26.79623 -80.25380 2949 ft 170 kts 266°
2026-04-26 22:58 26.79547 -80.26651 2956 ft 160 kts 266°
2026-04-26 22:58 26.79472 -80.27890 2969 ft 161 kts 267°
2026-04-26 22:58 26.79385 -80.29146 2962 ft 162 kts 266°
2026-04-26 22:58 26.79297 -80.30406 2967 ft 169 kts 267°
2026-04-26 22:59 26.79208 -80.31736 2982 ft 169 kts 266°
2026-04-26 22:59 26.79120 -80.33028 2971 ft 168 kts 266°
2026-04-26 22:59 26.79035 -80.34331 2976 ft 168 kts 266°
2026-04-26 22:59 26.78697 -80.35568 2879 ft 174 kts 233°
2026-04-26 23:00 26.77592 -80.36062 2866 ft 179 kts 183°
2026-04-26 23:00 26.76344 -80.35902 2995 ft 183 kts 176°
2026-04-26 23:00 26.75077 -80.35768 2989 ft 182 kts 177°
2026-04-26 23:00 26.73811 -80.35654 2983 ft 183 kts 178°
2026-04-26 23:01 26.72533 -80.35520 2956 ft 187 kts 177°
2026-04-26 23:01 26.71257 -80.35394 2960 ft 185 kts 178°
2026-04-26 23:01 26.69906 -80.35253 2492 ft 201 kts 178°
2026-04-26 23:01 26.68638 -80.34632 1874 ft 198 kts 137°
2026-04-26 23:02 26.68203 -80.33324 1439 ft 176 kts 87°
2026-04-26 23:02 26.68819 -80.32242 1155 ft 166 kts 30°
2026-04-26 23:02 26.69822 -80.32242 1001 ft 137 kts 330°
2026-04-26 23:02 26.70637 -80.32306 1027 ft 122 kts 28°
2026-04-26 23:03 26.71197 -80.31594 1051 ft 124 kts 68°
2026-04-26 23:03 26.71266 -80.30655 1045 ft 127 kts 106°
2026-04-26 23:03 26.70906 -80.29751 1196 ft 126 kts 123°
2026-04-26 23:03 26.70480 -80.29029 1497 ft 109 kts 126°
2026-04-26 23:04 26.70078 -80.28239 1729 ft 117 kts 114°
2026-04-26 23:04 26.69970 -80.27363 2088 ft 109 kts 85°
2026-04-26 23:04 26.70049 -80.26430 2205 ft 141 kts 91°
2026-04-26 23:04 26.69857 -80.25274 2349 ft 154 kts 110°
2026-04-26 23:05 26.69519 -80.24137 2465 ft 153 kts 108°
2026-04-26 23:05 26.69331 -80.23388 2494 ft 151 kts 103°
2026-04-26 23:05 26.69117 -80.22248 2256 ft 148 kts 101°
2026-04-26 23:05 26.68983 -80.21108 1904 ft 147 kts 97°
2026-04-26 23:06 26.68871 -80.19983 1564 ft 141 kts 97°
2026-04-26 23:06 26.68765 -80.18947 1408 ft 128 kts 98°
2026-04-26 23:06 26.68614 -80.17992 1277 ft 117 kts 102°
2026-04-26 23:06 26.68484 -80.17098 1155 ft 120 kts 97°
2026-04-26 23:07 26.68458 -80.16156 1009 ft 123 kts 95°
2026-04-26 23:07 26.68495 -80.15172 912 ft 129 kts 95°
2026-04-26 23:07 26.68513 -80.14155 743 ft 133 kts 97°
2026-04-26 23:07 26.68531 -80.13126 579 ft 130 kts 96°
2026-04-26 23:08 26.68455 -80.12156 382 ft 123 kts 104°
2026-04-26 23:08 26.68366 -80.11220 198 ft 119 kts 101°
2026-04-26 23:08 26.68299 -80.10335 53 ft 109 kts 96°
2026-04-26 23:08 26.68258 -80.09556 29 ft 90 kts 94°
2026-04-26 23:09 26.68236 -80.08989 22 ft 69 kts 94°
2026-04-26 23:09 26.68219 -80.08575 27 ft 23 kts 93°
2026-04-26 23:09 26.68211 -80.08379 29 ft 31 kts 92°
2026-04-26 23:09 26.68203 -80.08141 31 ft 17 kts 90°
2026-04-26 23:10 26.68140 -80.08045 30 ft 18 kts 169°
2026-04-26 23:10 26.67993 -80.08050 27 ft 20 kts 208°
2026-04-26 23:10 26.67976 -80.08091 27 ft 0 kts 261°